DC4AT Weather Reports


time (UTC)temp
C
wind
direction
speed
KPH
gust
KPH
rain 1hr
cm
rain 24hr
cm
rain mn
cm
humidity
%
barometer
mb
20260506211329 8 304 3.2 8.0 0.00 0.97 0.97 81 1008.1
20260506210329 8 282 4.8 11.3 0.00 0.97 0.97 81 1008.0
20260506205329 8 295 4.8 6.4 0.03 0.97 0.97 81 1008.0
20260506204329 8 257 4.8 11.3 0.03 0.97 0.97 81 1008.1
20260506203329 8 281 1.6 8.0 0.03 0.97 0.97 81 1008.0
20260506202329 8 315 4.8 9.7 0.03 0.97 0.97 81 1007.9
20260506201329 9 346 3.2 8.0 0.03 0.97 0.97 80 1007.9
20260506200329 9 292 4.8 8.0 0.03 0.97 0.97 80 1007.9
20260506195329 9 328 4.8 11.3 0.00 0.94 0.94 80 1007.7
20260506194329 9 299 6.4 12.9 0.00 0.94 0.94 80 1007.7
20260506193329 9 305 6.4 14.5 0.00 0.94 0.94 80 1007.7
20260506192329 9 293 3.2 11.3 0.00 0.94 0.94 80 1007.6
20260506191329 9 340 4.8 14.5 0.00 0.94 0.94 81 1007.4
20260506190329 9 302 4.8 11.3 0.00 0.94 0.94 81 1007.1
20260506185329 10 288 3.2 11.3 0.00 0.94 0.94 80 1007.1
20260506184329 10 329 6.4 8.0 0.00 0.94 0.94 80 1007.0
20260506183329 10 266 4.8 6.4 0.00 0.94 0.94 80 1006.7
20260506182329 10 284 6.4 11.3 0.00 0.94 0.94 81 1006.7
20260506181329 10 286 8.0 14.5 0.00 0.94 0.94 81 1006.6
20260506180329 10 304 4.8 11.3 0.00 0.94 0.94 81 1006.6
20260506175329 10 319 8.0 16.1 0.00 0.94 0.94 81 1006.6
20260506174329 10 269 8.0 12.9 0.00 0.94 0.94 81 1006.5
20260506173329 10 308 4.8 11.3 0.00 0.94 0.94 81 1006.3
20260506172329 10 323 6.4 16.1 0.00 0.94 0.94 81 1006.3
20260506171329 10 280 6.4 12.9 0.00 0.94 0.94 81 1006.3
20260506170329 10 273 6.4 12.9 0.00 0.94 0.94 81 1006.3
20260506165329 10 305 8.0 17.7 0.00 0.94 0.94 82 1006.2
20260506164329 10 345 4.8 12.9 0.00 0.94 0.94 82 1006.2
20260506163329 10 325 6.4 16.1 0.00 0.94 0.94 82 1006.0
20260506162329 10 309 9.7 16.1 0.00 0.94 0.94 82 1006.1
20260506161329 11 296 8.0 12.9 0.00 0.94 0.94 82 1006.1
20260506160329 11 327 6.4 14.5 0.00 0.94 0.94 82 1006.1
20260506155329 11 348 8.0 16.1 0.00 0.94 0.94 82 1006.0
20260506154329 11 290 8.0 16.1 0.00 0.94 0.94 82 1005.9
20260506153329 11 317 6.4 16.1 0.00 0.94 0.94 82 1005.9
20260506152330 11 324 6.4 16.1 0.00 0.94 0.94 82 1006.0
20260506151330 11 306 6.4 12.9 0.00 0.94 0.94 82 1006.0
20260506150330 11 277 4.8 12.9 0.00 0.94 0.94 81 1006.0
20260506145330 11 256 4.8 12.9 0.00 0.94 0.94 81 1005.8
20260506144330 11 340 8.0 12.9 0.00 0.94 0.94 81 1005.8
20260506143330 11 296 6.4 12.9 0.03 0.94 0.94 81 1005.8
20260506142330 11 309 6.4 11.3 0.03 0.94 0.94 81 1005.8
20260506141330 11 332 4.8 14.5 0.03 0.94 0.94 81 1005.7
20260506140330 11 327 4.8 12.9 0.03 0.94 0.94 81 1005.9
20260506135330 11 300 6.4 11.3 0.03 0.94 0.94 81 1006.0
20260506134330 11 297 6.4 14.5 0.03 0.94 0.94 81 1005.9
20260506133330 11 302 8.0 14.5 0.00 0.91 0.91 81 1005.8
20260506132330 11 254 4.8 14.5 0.03 0.91 0.91 80 1005.8
20260506131330 11 336 6.4 12.9 0.03 0.91 0.91 80 1005.7
20260506130330 11 342 4.8 8.0 0.03 0.91 0.91 81 1005.7
20260506125330 11 335 4.8 8.0 0.03 0.91 0.91 81 1005.7
20260506124330 11 333 6.4 12.9 0.03 0.91 0.91 81 1005.7
20260506123330 11 317 4.8 11.3 0.03 0.91 0.91 81 1005.7
20260506122330 11 323 4.8 12.9 0.00 0.89 0.89 81 1005.6
20260506121330 11 298 4.8 12.9 0.00 0.89 0.89 81 1005.6
20260506120330 11 298 4.8 11.3 0.00 0.89 0.89 81 1005.6
20260506115330 11 333 4.8 9.7 0.00 0.89 0.89 81 1005.4
20260506114330 11 272 4.8 9.7 0.00 0.89 0.89 81 1005.4
20260506113330 11 288 3.2 9.7 0.00 0.89 0.89 81 1005.3
20260506112330 11 338 4.8 8.0 0.00 0.89 0.89 81 1005.3
20260506111330 11 333 4.8 8.0 0.00 0.89 0.89 81 1005.3
20260506110330 11 319 3.2 8.0 0.00 0.89 0.89 81 1005.4
20260506105330 11 315 4.8 8.0 0.00 0.89 0.89 81 1005.3
20260506104330 11 323 4.8 8.0 0.00 0.89 0.89 81 1005.3
20260506103330 11 331 3.2 9.7 0.00 0.89 0.89 81 1005.2
20260506102330 11 322 4.8 8.0 0.00 0.89 0.89 81 1005.2
20260506101330 11 338 3.2 6.4 0.00 0.89 0.89 81 1005.2
20260506100330 11 299 4.8 6.4 0.00 0.89 0.89 82 1005.1
20260506095330 11 332 4.8 12.9 0.00 0.89 0.89 81 1005.1
20260506094330 11 54 1.6 1.6 0.00 0.89 0.89 80 1005.0
20260506093330 11 109 1.6 6.4 0.00 0.89 0.89 80 1005.0
20260506092330 11 140 0.0 1.6 0.00 0.89 0.89 80 1004.9
20260506091330 11 81 1.6 1.6 0.03 0.89 0.89 80 1004.9
20260506090330 11 80 1.6 4.8 0.03 0.89 0.89 80 1004.8
20260506085330 11 355 1.6 1.6 0.03 0.89 0.89 80 1004.8
20260506084330 11 355 3.2 4.8 0.03 0.89 0.89 79 1004.8
20260506083330 11 33 3.2 6.4 0.03 0.89 0.89 79 1004.8
20260506082330 11 74 3.2 8.0 0.03 0.89 0.89 79 1004.7
20260506081330 11 81 4.8 8.0 0.03 0.89 0.89 79 1004.8
20260506080331 11 51 4.8 6.4 0.03 0.86 0.86 79 1004.7
20260506073331 10 69 1.6 6.4 0.03 0.86 0.86 80 1004.6
20260506072331 10 62 0.0 0.0 0.03 0.86 0.86 79 1004.7
20260506071331 10 62 0.0 0.0 0.03 0.86 0.86 80 1004.6
20260506070331 10 62 0.0 0.0 0.00 0.84 0.84 80 1004.7
20260506062331 10 57 3.2 6.4 0.00 0.84 0.84 80 1004.6
20260506061331 10 62 0.0 4.8 0.00 0.84 0.84 80 1004.6
20260506060331 10 62 1.6 1.6 0.00 0.84 0.84 80 1004.6
20260506051331 10 66 0.0 0.0 0.05 0.86 0.84 80 1004.6
20260506050331 10 67 0.0 0.0 0.05 0.86 0.84 80 1004.5
20260506044331 10 67 0.0 0.0 0.08 0.84 0.81 80 1004.5
20260506043331 10 67 0.0 0.0 0.10 0.86 0.81 80 1004.6
20260506042331 10 67 0.0 0.0 0.10 0.84 0.79 80 1004.5
20260506041331 10 67 0.0 0.0 0.10 0.84 0.79 80 1004.6
20260506040331 10 67 0.0 0.0 0.15 0.84 0.79 80 1004.5
20260506035331 10 67 0.0 3.2 0.13 0.81 0.76 80 1004.6
20260506034331 10 67 0.0 3.2 0.15 0.79 0.74 80 1004.7
20260506033332 10 67 0.0 4.8 0.13 0.79 0.71 80 1004.7
20260506032331 10 68 1.6 0.0 0.13 0.76 0.69 80 1004.9
20260506031331 10 68 3.2 6.4 0.15 0.76 0.69 80 1004.9
20260506030331 10 88 4.8 8.0 0.10 0.71 0.64 80 1004.9
20260506025331 10 74 3.2 6.4 0.15 0.71 0.64 81 1005.0
20260506024331 10 50 1.6 8.0 0.13 0.66 0.58 81 1005.2
20260506023331 10 13 0.0 0.0 0.15 0.66 0.58 81 1005.4
20260506022331 10 0 0.0 0.0 0.13 0.64 0.56 81 1005.6
20260506021331 10 349 0.0 0.0 0.15 0.61 0.53 81 1005.5
20260506020331 10 349 0.0 0.0 0.15 0.61 0.53 81 1005.5
20260506015331 10 349 0.0 0.0 0.13 0.56 0.48 81 1005.5
20260506014331 10 349 0.0 0.0 0.13 0.53 0.46 81 1005.6
20260506013331 10 348 0.0 0.0 0.13 0.51 0.43 81 1005.7
20260506012331 10 349 0.0 0.0 0.15 0.51 0.43 81 1005.8
20260506011331 10 349 0.0 0.0 0.13 0.46 0.38 81 1005.8
20260506010331 10 348 0.0 0.0 0.15 0.46 0.38 81 1005.7
20260506005331 10 349 0.0 0.0 0.15 0.43 0.36 81 1005.8
20260506004331 10 350 0.0 0.0 0.15 0.41 0.33 81 1005.8
20260506003332 10 350 0.0 1.6 0.13 0.38 0.30 81 1005.9
20260506002332 11 324 0.0 0.0 0.15 0.36 0.28 81 1006.0
20260506001332 11 355 0.0 0.0 0.13 0.33 0.25 81 1006.1
20260506000332 11 321 0.0 0.0 0.13 0.30 0.23 81 1006.2
20260505235332 11 327 0.0 3.2 0.13 0.28 0.20 81 1006.3
20260505234332 11 0 0.0 0.0 0.13 0.25 0.18 81 1006.4
20260505233332 11 355 0.0 0.0 0.15 0.28 0.18 82 1006.5
20260505232332 11 0 1.6 4.8 0.10 0.23 0.13 82 1006.5
20260505231332 11 48 3.2 4.8 0.13 0.23 0.13 81 1006.5
20260505230332 11 355 3.2 6.4 0.10 0.20 0.10 81 1006.5
20260505225332 11 22 3.2 8.0 0.08 0.18 0.08 81 1006.6
20260505224332 11 342 3.2 9.7 0.05 0.15 0.05 81 1006.6
20260505223332 11 328 4.8 8.0 0.03 0.13 0.03 82 1006.6
20260505222332 11 343 3.2 9.7 0.03 0.13 0.03 82 1006.6
20260505221332 11 33 3.2 6.4 0.00 0.10 0.10 82 1006.6
20260505220332 11 315 1.6 6.4 0.00 0.10 0.10 82 1006.7
20260505215332 11 337 3.2 8.0 0.00 0.10 0.10 82 1006.7
20260505214332 11 5 3.2 6.4 0.00 0.10 0.10 82 1006.8
20260505213332 11 355 3.2 4.8 0.00 0.10 0.10 82 1006.9
20260505212332 11 323 3.2 9.7 0.00 0.10 0.10 82 1006.9